This is the latest recevied weather packets stored in our database for station/object HJ3GNC-11. If no packets are shown the sender has not sent any weather packets the latest 1 day(s).
| Time | Temp. | Humidity | Pressure | Rain* | Wind** | Luminosity | Snow |
|---|---|---|---|---|---|---|---|
| 1778103503 | 17.22° C | 83% | 1014 hPa | 0 mm | - | - | - |
| 1778101551 | 15° C | 83% | 1014 hPa | 0 mm | - | - | - |
| 1778099657 | 17.78° C | 83% | 1014 hPa | 0 mm | - | - | - |
| 1778098703 | 16.67° C | 83% | 1014 hPa | 0 mm | - | - | - |
| 1778093948 | 17.22° C | 84% | 1014 hPa | 0 mm | - | - | - |
| 1778093000 | 16.11° C | 84% | 1015 hPa | 0 mm | - | - | - |
| 1778091103 | 13.89° C | 84% | 1016 hPa | 0 mm | - | - | - |
| 1778089191 | 17.78° C | 83% | 1017 hPa | 0 mm | - | - | - |
| 1778087299 | 15.56° C | 83% | 1018 hPa | 0 mm | - | - | - |
| 1778085401 | 13.33° C | 83% | 1018 hPa | 0 mm | - | - | - |
| 1778082533 | 14.44° C | 87% | 1020 hPa | 0 mm | - | - | - |
| 1778080587 | 16.11° C | 89% | 1020 hPa | 0 mm | - | - | - |
| 1778077726 | 15.56° C | 90% | 1020 hPa | 0 mm | - | - | - |
| 1778074879 | 12.22° C | 90% | 1020 hPa | 0 mm | - | - | - |
| 1778073932 | 15.56° C | 95% | 1020 hPa | 0 mm | - | - | - |
| 1778072988 | 14.44° C | 95% | 1020 hPa | 0 mm | - | - | - |
| 1778066359 | 10.56° C | 97% | 1020 hPa | 0 mm | - | - | - |
| 1778064472 | 10.56° C | 96% | 1020 hPa | 0 mm | - | - | - |
| 1778061640 | 10.56° C | 96% | 1020 hPa | 0 mm | - | - | - |
| 1778058797 | 10.56° C | 96% | 1020 hPa | 0 mm | - | - | - |
| 1778055967 | 11.11° C | 96% | 1020 hPa | 0 mm | - | - | - |
| 1778055025 | 10° C | 96% | 1020 hPa | 0 mm | - | - | - |
| 1778053137 | 10.56° C | 95% | 1020 hPa | 0 mm | - | - | - |
| 1778052194 | 11.11° C | 96% | 1020 hPa | 0 mm | - | - | - |
| 1778051247 | 10.56° C | 95% | 1020 hPa | 0 mm | - | - | - |
* Rain latest hour (hover to see other rain measurements)
** Current wind speed in m/s (hover to see current wind gust speed)